This is the latest recevied weather packets stored in our database for station/object DD3UTS-13. If no packets are shown the sender has not sent any weather packets the latest 10 day(s).
| Time | Temp. | Humidity | Pressure | Rain* | Wind** | Luminosity | Snow |
|---|---|---|---|---|---|---|---|
| 1777482032 | 12.22° C | 30% | 1026.9 hPa | 0 mm | - | 412 W/m² | - |
| 1777481732 | 12.22° C | 30% | 1027 hPa | 0 mm | - | 426 W/m² | - |
| 1777481431 | 12.78° C | 29% | 1026.9 hPa | 0 mm | - | 437 W/m² | - |
| 1777481132 | 12.22° C | 29% | 1026.9 hPa | 0 mm | - | 443 W/m² | - |
| 1777480832 | 12.22° C | 29% | 1026.9 hPa | 0 mm | - | 449 W/m² | - |
| 1777480532 | 12.78° C | 29% | 1027 hPa | 0 mm | - | 455 W/m² | - |
| 1777480232 | 12.78° C | 29% | 1026.9 hPa | 0 mm | - | 461 W/m² | - |
| 1777479932 | 12.78° C | 28% | 1026.9 hPa | 0 mm | - | 464 W/m² | - |
| 1777479631 | 12.78° C | 29% | 1026.8 hPa | 0 mm | - | 468 W/m² | - |
| 1777479332 | 12.78° C | 29% | 1026.8 hPa | 0 mm | - | 471 W/m² | - |
| 1777479032 | 12.78° C | 29% | 1026.8 hPa | 0 mm | - | 472 W/m² | - |
| 1777478732 | 12.78° C | 28% | 1026.8 hPa | 0 mm | - | 475 W/m² | - |
| 1777478432 | 12.78° C | 28% | 1026.8 hPa | 0 mm | - | 477 W/m² | - |
| 1777478132 | 13.33° C | 28% | 1026.8 hPa | 0 mm | - | 479 W/m² | - |
| 1777477831 | 13.33° C | 29% | 1026.7 hPa | 0 mm | - | 484 W/m² | - |
| 1777477532 | 13.33° C | 28% | 1026.8 hPa | 0 mm | - | 486 W/m² | - |
| 1777477231 | 13.33° C | 28% | 1026.8 hPa | 0 mm | - | 491 W/m² | - |
| 1777476932 | 13.89° C | 29% | 1026.7 hPa | 0 mm | - | 495 W/m² | - |
| 1777476632 | 13.89° C | 28% | 1026.8 hPa | 0 mm | - | 499 W/m² | - |
| 1777476332 | 13.33° C | 28% | 1026.7 hPa | 0 mm | - | 501 W/m² | - |
| 1777476032 | 13.89° C | 29% | 1026.6 hPa | 0 mm | - | 504 W/m² | - |
| 1777475732 | 13.89° C | 29% | 1026.7 hPa | 0 mm | - | 507 W/m² | - |
| 1777475432 | 13.89° C | 30% | 1026.7 hPa | 0 mm | - | 508 W/m² | - |
| 1777475132 | 13.89° C | 30% | 1026.6 hPa | 0 mm | - | 511 W/m² | - |
| 1777474831 | 13.89° C | 30% | 1026.6 hPa | 0 mm | - | 513 W/m² | - |
* Rain latest 24 hours (hover to see other rain measurements)
** Current wind speed in m/s (hover to see current wind gust speed)